ソーホー彗星

C/1997 M1 ( SOHO )

English version
Home page
Updated on September 29, 1997

---------------------------------------------------------------------

・ プロフィール

発見日 1997年6月29日
発見光度 5等
発見者 SOHO-LASCO coronagraphs C3

・ 軌道要素

T 1997 June 30.94523 TT                                 Marsden
q   0.0058413            (2000.0)            P               Q
                   Peri.   85.15451     +0.09933234     -0.99495390
                   Node     1.17831     -0.93467510     -0.09816888
e   1.0            Incl.  136.57331     +0.34134374     +0.02072716
>From 15 observations 1997 June 29-30.

・ 光度変化

        m1 = 16 + 5 logΔ + 10.0 log r

---------------------------------------------------------------------

軌道要素は Dr. Brian G. Marsden の計算によるもので、 M.P.E.C. 1997-N04 に掲載されたものです。
光度グラフはComet for Windowsで作成したものです。

---------------------------------------------------------------------

Copyright(C) Seiichi Yoshida (comet@aerith.net). All rights reserved.